Time,TemperatureF,DewpointF,PressureIn,WindDirection,WindDirectionDegrees,WindSpeedMPH,WindSpeedGustMPH,Humidity,HourlyPrecipIn,Conditions,Clouds,dailyrainin,SoftwareType,DateUTC
2013-08-04 00:03:00,71.0,69.0,30.12,West,268,0.0,0.0,95,0.00,,,0.00,,2013-08-04 04:03:00,
2013-08-04 00:12:00,71.0,69.0,30.12,West,268,0.0,0.0,95,0.00,,,0.00,,2013-08-04 04:12:00,
2013-08-04 00:22:00,71.0,69.0,30.12,West,268,0.0,0.0,95,0.00,,,0.00,,2013-08-04 04:22:00,
2013-08-04 00:32:00,71.0,69.0,30.12,West,268,0.0,0.0,95,0.00,,,0.00,,2013-08-04 04:32:00,
2013-08-04 00:42:00,71.0,69.0,30.12,West,269,0.0,0.0,95,0.00,,,0.00,,2013-08-04 04:42:00,
2013-08-04 00:52:00,71.0,69.0,30.12,West,269,0.0,0.0,95,0.00,,,0.00,,2013-08-04 04:52:00,
2013-08-04 01:02:00,71.0,70.0,30.12,West,269,0.0,0.0,96,0.00,,,0.00,,2013-08-04 05:02:00,
2013-08-04 01:12:00,71.0,70.0,30.12,West,269,0.0,0.0,96,0.00,,,0.00,,2013-08-04 05:12:00,
2013-08-04 01:22:00,71.0,70.0,30.12,West,268,0.0,0.0,96,0.00,,,0.00,,2013-08-04 05:22:00,
2013-08-04 01:32:00,71.0,70.0,30.12,West,268,0.0,0.0,96,0.00,,,0.00,,2013-08-04 05:32:00,
2013-08-04 01:42:00,71.0,70.0,30.12,West,268,0.0,0.0,96,0.00,,,0.00,,2013-08-04 05:42:00,
2013-08-04 01:52:00,70.0,69.0,30.12,West,268,0.0,0.0,96,0.00,,,0.00,,2013-08-04 05:52:00,
2013-08-04 02:02:00,70.0,69.0,30.12,West,268,0.0,0.0,96,0.00,,,0.00,,2013-08-04 06:02:00,
2013-08-04 02:12:00,70.0,69.0,30.12,West,268,0.0,0.0,96,0.00,,,0.00,,2013-08-04 06:12:00,
2013-08-04 02:22:00,70.0,69.0,30.12,West,268,0.0,0.0,96,0.00,,,0.00,,2013-08-04 06:22:00,
2013-08-04 02:32:00,70.0,69.0,30.11,West,268,0.0,0.0,96,0.00,,,0.00,,2013-08-04 06:32:00,
2013-08-04 02:43:00,70.0,69.0,30.11,West,269,0.0,0.0,97,0.00,,,0.00,,2013-08-04 06:43:00,
2013-08-04 02:52:00,70.0,69.0,30.10,West,268,0.0,0.0,97,0.00,,,0.00,,2013-08-04 06:52:00,
2013-08-04 03:02:00,70.0,69.0,30.10,West,268,0.0,0.0,97,0.00,,,0.00,,2013-08-04 07:02:00,
2013-08-04 03:12:00,70.0,69.0,30.10,West,269,0.0,0.0,96,0.00,,,0.00,,2013-08-04 07:12:00,
2013-08-04 03:22:00,70.0,69.0,30.09,West,269,0.0,0.0,97,0.00,,,0.00,,2013-08-04 07:22:00,
2013-08-04 03:33:00,70.0,69.0,30.09,West,269,0.0,0.0,97,0.00,,,0.00,,2013-08-04 07:33:00,
2013-08-04 03:43:00,70.0,69.0,30.09,West,269,0.0,1.0,97,0.00,,,0.00,,2013-08-04 07:43:00,
2013-08-04 03:52:00,70.0,69.0,30.09,West,269,0.0,0.0,96,0.00,,,0.00,,2013-08-04 07:52:00,
2013-08-04 04:02:00,69.0,68.0,30.09,West,268,0.0,0.0,97,0.00,,,0.00,,2013-08-04 08:02:00,
2013-08-04 04:12:00,69.0,68.0,30.09,West,269,0.0,0.0,97,0.00,,,0.00,,2013-08-04 08:12:00,
2013-08-04 04:23:00,69.0,68.0,30.08,West,269,0.0,0.0,96,0.00,,,0.00,,2013-08-04 08:23:00,
2013-08-04 04:33:00,69.0,68.0,30.09,West,268,0.0,0.0,96,0.00,,,0.00,,2013-08-04 08:33:00,
2013-08-04 04:40:00,69.0,68.0,30.09,West,269,0.0,1.0,97,0.00,,,0.00,,2013-08-04 08:40:00,
2013-08-04 04:43:00,69.0,68.0,30.09,West,268,0.0,0.0,97,0.00,,,0.00,,2013-08-04 08:43:00,
2013-08-04 04:53:00,69.0,68.0,30.09,West,269,0.0,0.0,97,0.00,,,0.00,,2013-08-04 08:53:00,
2013-08-04 05:02:00,69.0,68.0,30.09,West,269,0.0,1.0,97,0.00,,,0.00,,2013-08-04 09:02:00,
2013-08-04 05:12:00,69.0,68.0,30.09,West,269,0.0,1.0,97,0.00,,,0.00,,2013-08-04 09:12:00,
2013-08-04 05:22:00,69.0,68.0,30.09,West,269,0.0,1.0,97,0.00,,,0.00,,2013-08-04 09:22:00,
2013-08-04 05:32:00,69.0,68.0,30.09,West,269,0.0,1.0,97,0.00,,,0.00,,2013-08-04 09:32:00,
2013-08-04 06:12:00,69.0,68.0,30.09,West,269,0.0,0.0,97,0.00,,,0.00,,2013-08-04 10:12:00,
2013-08-04 06:22:00,69.0,68.0,30.09,West,269,0.0,0.0,98,0.00,,,0.00,,2013-08-04 10:22:00,
2013-08-04 06:32:00,69.0,68.0,30.10,West,268,0.0,0.0,97,0.00,,,0.00,,2013-08-04 10:32:00,
2013-08-04 06:43:00,69.0,68.0,30.10,West,269,0.0,0.0,97,0.00,,,0.00,,2013-08-04 10:43:00,
2013-08-04 06:52:00,69.0,68.0,30.10,West,268,0.0,0.0,97,0.00,,,0.00,,2013-08-04 10:52:00,
2013-08-04 07:02:00,69.0,68.0,30.10,West,269,0.0,0.0,97,0.00,,,0.00,,2013-08-04 11:02:00,
2013-08-04 07:12:00,69.0,68.0,30.10,West,268,0.0,0.0,97,0.00,,,0.00,,2013-08-04 11:12:00,
2013-08-04 07:22:00,69.0,68.0,30.10,WSW,244,0.0,1.0,97,0.00,,,0.00,,2013-08-04 11:22:00,
2013-08-04 07:32:00,69.0,68.0,30.10,SSE,148,0.0,2.0,97,0.00,,,0.00,,2013-08-04 11:32:00,
2013-08-04 07:42:00,69.0,68.0,30.10,ESE,121,0.0,3.0,97,0.00,,,0.00,,2013-08-04 11:42:00,
2013-08-04 07:52:00,68.0,67.0,30.10,South,182,0.0,5.0,97,0.00,,,0.00,,2013-08-04 11:52:00,
2013-08-04 08:02:00,68.0,67.0,30.10,South,173,0.0,3.0,97,0.00,,,0.00,,2013-08-04 12:02:00,
2013-08-04 08:12:00,68.0,67.0,30.11,South,174,0.0,0.0,97,0.00,,,0.00,,2013-08-04 12:12:00,
2013-08-04 08:22:00,69.0,68.0,30.11,South,174,0.0,2.0,97,0.00,,,0.00,,2013-08-04 12:22:00,
2013-08-04 08:32:00,69.0,68.0,30.11,South,174,0.0,0.0,97,0.00,,,0.00,,2013-08-04 12:32:00,
2013-08-04 08:43:00,69.0,68.0,30.11,South,173,0.0,0.0,97,0.00,,,0.00,,2013-08-04 12:43:00,
2013-08-04 08:53:00,69.0,68.0,30.12,South,174,0.0,0.0,97,0.00,,,0.00,,2013-08-04 12:53:00,
2013-08-04 09:02:00,70.0,69.0,30.11,South,174,0.0,0.0,97,0.00,,,0.00,,2013-08-04 13:02:00,
2013-08-04 09:12:00,70.0,69.0,30.11,South,173,0.0,0.0,97,0.00,,,0.00,,2013-08-04 13:12:00,
2013-08-04 09:22:00,70.0,69.0,30.12,South,174,0.0,0.0,97,0.00,,,0.00,,2013-08-04 13:22:00,
2013-08-04 09:32:00,71.0,70.0,30.12,SSE,164,0.0,0.0,96,0.00,,,0.00,,2013-08-04 13:32:00,
2013-08-04 09:43:00,71.0,70.0,30.12,ESE,110,0.0,1.0,96,0.00,,,0.00,,2013-08-04 13:43:00,
2013-08-04 09:52:00,72.0,70.0,30.12,South,184,0.0,1.0,95,0.00,,,0.00,,2013-08-04 13:52:00,
2013-08-04 10:02:00,72.0,70.0,30.11,SE,124,0.0,1.0,94,0.00,,,0.00,,2013-08-04 14:02:00,
2013-08-04 10:12:00,72.0,70.0,30.12,NNW,329,0.0,5.0,93,0.00,,,0.00,,2013-08-04 14:12:00,
2013-08-04 10:22:00,73.0,71.0,30.12,SW,229,0.0,3.0,93,0.00,,,0.00,,2013-08-04 14:22:00,
2013-08-04 10:32:00,73.0,70.0,30.12,ESE,107,0.0,3.0,91,0.00,,,0.00,,2013-08-04 14:32:00,
2013-08-04 10:43:00,74.0,71.0,30.12,SSE,163,0.0,1.0,90,0.00,,,0.00,,2013-08-04 14:43:00,
2013-08-04 10:53:00,74.0,71.0,30.12,ESE,115,0.0,5.0,90,0.00,,,0.00,,2013-08-04 14:53:00,
2013-08-04 11:02:00,74.0,71.0,30.12,SE,140,0.0,3.0,90,0.00,,,0.00,,2013-08-04 15:02:00,
2013-08-04 11:12:00,75.0,72.0,30.11,SSE,160,0.0,3.0,91,0.00,,,0.00,,2013-08-04 15:12:00,
2013-08-04 11:22:00,76.0,70.0,30.11,NE,48,0.0,5.0,83,0.00,,,0.00,,2013-08-04 15:22:00,
2013-08-04 11:32:00,77.0,71.0,30.11,ESE,110,0.0,2.0,81,0.00,,,0.00,,2013-08-04 15:32:00,
2013-08-04 11:43:00,79.0,73.0,30.11,WNW,302,0.0,1.0,81,0.00,,,0.00,,2013-08-04 15:43:00,
2013-08-04 11:53:00,80.0,72.0,30.11,WSW,245,0.0,2.0,77,0.00,,,0.00,,2013-08-04 15:53:00,
2013-08-04 12:02:00,80.0,71.0,30.11,WNW,283,1.0,3.0,75,0.00,,,0.00,,2013-08-04 16:02:00,
2013-08-04 12:12:00,81.0,72.0,30.11,WNW,296,1.0,3.0,73,0.00,,,0.00,,2013-08-04 16:12:00,
2013-08-04 12:22:00,82.0,73.0,30.10,WNW,292,0.0,2.0,74,0.00,,,0.00,,2013-08-04 16:22:00,
2013-08-04 12:33:00,82.0,71.0,30.11,WNW,287,1.0,5.0,70,0.00,,,0.00,,2013-08-04 16:33:00,
2013-08-04 12:42:00,83.0,72.0,30.10,WNW,290,0.0,5.0,70,0.00,,,0.00,,2013-08-04 16:42:00,
2013-08-04 12:53:00,83.0,73.0,30.10,NW,326,0.0,1.0,71,0.00,,,0.00,,2013-08-04 16:53:00,
2013-08-04 13:02:00,84.0,72.0,30.10,SW,225,1.0,2.0,68,0.00,,,0.00,,2013-08-04 17:02:00,
2013-08-04 13:12:00,85.0,72.0,30.10,West,269,1.0,5.0,65,0.00,,,0.00,,2013-08-04 17:12:00,
2013-08-04 13:22:00,85.0,72.0,30.10,WNW,296,1.0,5.0,65,0.00,,,0.00,,2013-08-04 17:22:00,
2013-08-04 13:32:00,85.0,72.0,30.09,NNW,329,1.0,3.0,65,0.00,,,0.00,,2013-08-04 17:32:00,
2013-08-04 13:43:00,86.0,74.0,30.09,NNW,331,1.0,3.0,67,0.00,,,0.00,,2013-08-04 17:43:00,
2013-08-04 13:53:00,85.0,71.0,30.09,WNW,298,0.0,3.0,64,0.00,,,0.00,,2013-08-04 17:53:00,
2013-08-04 14:02:00,86.0,73.0,30.08,WNW,294,0.0,3.0,65,0.00,,,0.00,,2013-08-04 18:02:00,
2013-08-04 14:12:00,86.0,72.0,30.08,WNW,294,0.0,2.0,64,0.00,,,0.00,,2013-08-04 18:12:00,
2013-08-04 14:23:00,85.0,72.0,30.09,NNW,330,0.0,2.0,66,0.00,,,0.00,,2013-08-04 18:23:00,
2013-08-04 14:33:00,85.0,73.0,30.09,NNW,330,0.0,1.0,68,0.00,,,0.00,,2013-08-04 18:33:00,
2013-08-04 14:43:00,85.0,73.0,30.09,West,275,0.0,2.0,68,0.00,,,0.00,,2013-08-04 18:43:00,
2013-08-04 14:52:00,86.0,73.0,30.09,WNW,294,1.0,3.0,65,0.00,,,0.00,,2013-08-04 18:52:00,
2013-08-04 15:02:00,85.0,71.0,30.09,WNW,296,0.0,3.0,64,0.00,,,0.00,,2013-08-04 19:02:00,
2013-08-04 15:12:00,85.0,72.0,30.09,SW,234,0.0,3.0,66,0.00,,,0.00,,2013-08-04 19:12:00,
2013-08-04 15:22:00,85.0,71.0,30.09,West,262,1.0,3.0,63,0.00,,,0.00,,2013-08-04 19:22:00,
2013-08-04 15:33:00,85.0,71.0,30.08,West,261,0.0,3.0,63,0.00,,,0.00,,2013-08-04 19:33:00,
2013-08-04 15:43:00,85.0,71.0,30.07,WSW,248,0.0,3.0,63,0.00,,,0.00,,2013-08-04 19:43:00,
2013-08-04 15:53:00,84.0,70.0,30.08,WNW,299,0.0,3.0,63,0.00,,,0.00,,2013-08-04 19:53:00,
2013-08-04 16:02:00,84.0,71.0,30.08,NE,38,0.0,2.0,65,0.00,,,0.00,,2013-08-04 20:02:00,
2013-08-04 16:12:00,84.0,72.0,30.07,WSW,248,0.0,2.0,67,0.00,,,0.00,,2013-08-04 20:12:00,
2013-08-04 16:22:00,84.0,72.0,30.07,West,277,0.0,3.0,67,0.00,,,0.00,,2013-08-04 20:22:00,
2013-08-04 16:33:00,83.0,71.0,30.08,West,279,0.0,3.0,68,0.00,,,0.00,,2013-08-04 20:33:00,
2013-08-04 16:43:00,82.0,69.0,30.08,West,273,0.0,3.0,66,0.00,,,0.00,,2013-08-04 20:43:00,
2013-08-04 16:53:00,82.0,70.0,30.08,West,275,0.0,3.0,68,0.00,,,0.00,,2013-08-04 20:53:00,
2013-08-04 17:02:00,82.0,72.0,30.07,WNW,291,1.0,3.0,71,0.00,,,0.00,,2013-08-04 21:02:00,
2013-08-04 17:12:00,82.0,69.0,30.08,WNW,292,2.0,3.0,66,0.00,,,0.00,,2013-08-04 21:12:00,
2013-08-04 17:22:00,81.0,71.0,30.07,West,275,0.0,3.0,72,0.00,,,0.00,,2013-08-04 21:22:00,
2013-08-04 17:32:00,81.0,71.0,30.07,WNW,292,0.0,2.0,72,0.00,,,0.00,,2013-08-04 21:32:00,
2013-08-04 17:43:00,81.0,72.0,30.07,WNW,292,0.0,1.0,73,0.00,,,0.00,,2013-08-04 21:43:00,
2013-08-04 17:52:00,81.0,71.0,30.07,WNW,291,0.0,1.0,72,0.00,,,0.00,,2013-08-04 21:52:00,
2013-08-04 18:02:00,81.0,70.0,30.07,West,272,0.0,3.0,70,0.00,,,0.00,,2013-08-04 22:02:00,
2013-08-04 18:12:00,80.0,68.0,30.07,WNW,286,0.0,3.0,68,0.00,,,0.00,,2013-08-04 22:12:00,
2013-08-04 18:22:00,80.0,68.0,30.08,WNW,290,1.0,2.0,68,0.00,,,0.00,,2013-08-04 22:22:00,
2013-08-04 18:32:00,80.0,70.0,30.08,West,274,1.0,3.0,71,0.00,,,0.00,,2013-08-04 22:32:00,
2013-08-04 18:43:00,80.0,71.0,30.08,West,265,0.0,3.0,73,0.00,,,0.00,,2013-08-04 22:43:00,
2013-08-04 18:53:00,80.0,71.0,30.07,West,265,0.0,0.0,74,0.00,,,0.00,,2013-08-04 22:53:00,
2013-08-04 19:02:00,80.0,69.0,30.07,West,264,0.0,2.0,69,0.00,,,0.00,,2013-08-04 23:02:00,
2013-08-04 19:12:00,79.0,69.0,30.08,West,264,0.0,1.0,72,0.00,,,0.00,,2013-08-04 23:12:00,
2013-08-04 19:22:00,79.0,69.0,30.08,West,265,0.0,1.0,71,0.00,,,0.00,,2013-08-04 23:22:00,
2013-08-04 19:32:00,79.0,71.0,30.09,West,264,0.0,0.0,76,0.00,,,0.00,,2013-08-04 23:32:00,
2013-08-04 19:43:00,78.0,71.0,30.09,West,265,0.0,0.0,78,0.00,,,0.00,,2013-08-04 23:43:00,
2013-08-04 19:53:00,78.0,71.0,30.09,West,265,0.0,0.0,79,0.00,,,0.00,,2013-08-04 23:53:00,
2013-08-04 20:02:00,77.0,71.0,30.09,West,265,0.0,1.0,81,0.00,,,0.00,,2013-08-05 00:02:00,
2013-08-04 20:12:00,76.0,70.0,30.09,West,265,0.0,0.0,82,0.00,,,0.00,,2013-08-05 00:12:00,
2013-08-04 20:22:00,76.0,70.0,30.09,West,265,0.0,0.0,83,0.00,,,0.00,,2013-08-05 00:22:00,
2013-08-04 20:33:00,75.0,69.0,30.10,West,265,0.0,0.0,83,0.00,,,0.00,,2013-08-05 00:33:00,
2013-08-04 20:42:00,75.0,70.0,30.10,West,265,0.0,0.0,84,0.00,,,0.00,,2013-08-05 00:42:00,
2013-08-04 20:52:00,74.0,69.0,30.10,West,265,0.0,0.0,85,0.00,,,0.00,,2013-08-05 00:52:00,
2013-08-04 21:02:00,74.0,69.0,30.10,West,265,0.0,0.0,85,0.00,,,0.00,,2013-08-05 01:02:00,
2013-08-04 21:12:00,73.0,69.0,30.11,West,265,0.0,0.0,86,0.00,,,0.00,,2013-08-05 01:12:00,
2013-08-04 21:22:00,73.0,69.0,30.11,West,264,0.0,0.0,86,0.00,,,0.00,,2013-08-05 01:22:00,
2013-08-04 21:33:00,72.0,68.0,30.11,West,265,0.0,0.0,87,0.00,,,0.00,,2013-08-05 01:33:00,
2013-08-04 21:42:00,72.0,68.0,30.11,West,264,0.0,1.0,87,0.00,,,0.00,,2013-08-05 01:42:00,
2013-08-04 21:52:00,71.0,67.0,30.11,West,265,0.0,1.0,87,0.00,,,0.00,,2013-08-05 01:52:00,
2013-08-04 22:02:00,71.0,66.0,30.11,West,264,0.0,0.0,85,0.00,,,0.00,,2013-08-05 02:02:00,
2013-08-04 22:12:00,71.0,67.0,30.12,West,265,0.0,0.0,87,0.00,,,0.00,,2013-08-05 02:12:00,
2013-08-04 22:22:00,71.0,65.0,30.12,West,264,0.0,0.0,81,0.00,,,0.00,,2013-08-05 02:22:00,
2013-08-04 22:33:00,70.0,65.0,30.13,West,265,0.0,0.0,83,0.00,,,0.00,,2013-08-05 02:33:00,
2013-08-04 22:43:00,70.0,65.0,30.12,West,264,0.0,0.0,85,0.00,,,0.00,,2013-08-05 02:43:00,
2013-08-04 22:53:00,70.0,65.0,30.11,West,264,0.0,0.0,85,0.00,,,0.00,,2013-08-05 02:53:00,
2013-08-04 23:02:00,70.0,65.0,30.12,West,265,0.0,0.0,84,0.00,,,0.00,,2013-08-05 03:02:00,
2013-08-04 23:12:00,69.0,64.0,30.12,West,265,0.0,0.0,84,0.00,,,0.00,,2013-08-05 03:12:00,
2013-08-04 23:22:00,69.0,65.0,30.12,West,265,0.0,0.0,86,0.00,,,0.00,,2013-08-05 03:22:00,
2013-08-04 23:32:00,69.0,64.0,30.12,West,264,0.0,1.0,85,0.00,,,0.00,,2013-08-05 03:32:00,
2013-08-04 23:42:00,69.0,63.0,30.11,West,265,0.0,1.0,80,0.00,,,0.00,,2013-08-05 03:42:00,
2013-08-04 23:53:00,69.0,64.0,30.12,West,264,0.0,0.0,85,0.00,,,0.00,,2013-08-05 03:53:00,